Location: Sungai Dangang
(2.7500°N, 113.8333°E)
Time: 18:22:14
(UTC+00:00)

BREEZE-M DEB (TANK) - Pass Details

Date: 16 May 2021
Orbit: 324 x 16270 km, 49.5° (Epoch: 18 June)

Event Time Altitude Azimuth Distance (km) Brightness Sun altitude
Rises 12:28:42 0° 320° (NW) 10,519 9.7 -28.9°
Reaches altitude 10° 12:39:17 10° 318° (NW) 6,918 8.6 -31.3°
Enters shadow 12:53:55 62° 246° (WSW) 1,238 4.0 -34.6°
